Regional Weather Roundup
Issued by NWS

Home | Current Version | Previous Version | Text Only | Print | Product List | Glossary On
Versions: 1 2 3 4 5 6 7 8 9 10 11 12 13 14 15 16 17 18 19 20 21 22 23 24 25 26 27 28 29 30 31 32 33 34 35 36 37 38 39 40 41 42 43 44 45 46 47 48 49 50
000
ASUS43 KDTX 300110
RWRMI
MICHIGAN HOURLY REGIONAL WEATHER ROUNDUP
NATIONAL WEATHER SERVICE DETROIT/PONTIAC MI
800 PM EST THU JAN 29 2015

NOTE: "FAIR" INDICATES FEW OR NO CLOUDS BELOW 12,000 FEET WITH NO
SIGNIFICANT WEATHER AND/OR OBSTRUCTION TO VISIBILITY.

MIZ047>049-052>055-059>063-066>070-074>076-081>083-300200-
SOUTHEAST LOWER MICHIGAN

CITY           SKY/WX    TMP DP  RH WIND       PRES   REMARKS
ADRIAN         CLOUDY    32  28  85 NW10      30.01R WCI  24
ALMA           CLOUDY    30  22  74 NW10G23   30.03R WCI  21
ANN ARBOR      CLOUDY    32  29  88 NW9       29.97R FOG     WCI  24
BAD AXE        CLOUDY    30  29  95 NW14      29.90R WCI  20
CARO           CLOUDY    31  26  81 NW15      29.93R WCI  20
DETROIT CITY   CLOUDY    34  26  72 NW9G20    29.94R WCI  27
DETROIT        CLOUDY    32  27  81 W12       29.96R WCI  23
FLINT          CLOUDY    33  25  72 NW15G24   29.97R WCI  23
GROSSE ILE     CLOUDY    34  28  80 NW13      29.94R WCI  25
HILLSDALE      CLOUDY    32  29  91 NW13G20   30.00R WCI  22
HOWELL         CLOUDY    31  27  86 NW15G21   29.97R WCI  20

CITY           SKY/WX    TMP DP  RH WIND       PRES   REMARKS
JACKSON        CLOUDY    31  28  89 NW12G20   30.00R WCI  22
LAMBERTVILLE   CLOUDY    34  30  86 NW6       29.99R WCI  29
LANSING        CLOUDY    31  22  69 NW14G28   30.02R WCI  21
LAPEER         CLOUDY    31  28  88 NW13G18   29.93R WCI  21
MASON          CLOUDY    31  25  81 NW20G25   30.00R WCI  18
MONROE         CLOUDY    34  28  80 NW12      29.96R WCI  25
MT. CLEMENS    CLOUDY    32  27  83 NW13      29.90R WCI  22
PONTIAC        CLOUDY    30  27  88 NW18G25   29.93R WCI  18
PORT HOPE        N/A     31  27  85 NW12G20   29.88R WCI  22
PORT HURON     CLOUDY    30  27  86 NW12      29.91R WCI  21
TRI CITIES     CLOUDY    31  22  69 NW18G28   29.99R WCI  19
TROY           CLOUDY    34  28  80 W8G17     29.95R WCI  27
SAGINAW HB     CLOUDY    32  25  74 NW20      29.97R WCI  20
$$
MIZ043>046-050>051-056>058-064>065-071>073-077>080-300200-
SOUTHWEST LOWER MICHIGAN

CITY           SKY/WX    TMP DP  RH WIND       PRES   REMARKS
BATTLE CREEK   MIX PCPN  33  25  72 NW15      30.05R WCI  23
BENTON HARBOR  CLOUDY    34  25  69 NW10G20   30.11R WCI  26
BIG RAPIDS     FLURRIES  28  22  76 NW16      30.03R WCI  16
COLDWATER      CLOUDY    32  27  81 NW13      30.04R WCI  22
FREMONT        FLURRIES  30  24  81 N16       30.07R WCI  18
HOLLAND        CLOUDY    34  26  72 NW8       30.09R WCI  27
GRAND RAPIDS   FLURRIES  32  25  75 NW13      30.05R WCI  22
IONIA          CLOUDY    32  24  74 NW12G24   30.03R WCI  23
KALAMAZOO      CLOUDY    32  25  75 NW14      30.06R WCI  22
LUDINGTON      FLURRIES  31  26  81 N13G23    30.11R WCI  21
MARSHALL       CLOUDY    31  26  80 NW12G23   30.02R WCI  22
MOUNT PLEASANT CLOUDY    29  19  65 NW13G30   30.02R WCI  19
MUSKEGON       LGT SNOW  32  27  81 NW18G25   30.09R WCI  20
SOUTH HAVEN    CLOUDY    35  27  71 NW13G20   30.10R WCI  27
$$
MIZ016>042-300200-
NORTHERN LOWER MICHIGAN

CITY           SKY/WX    TMP DP  RH WIND       PRES   REMARKS
ALPENA         FLURRIES  25  20  81 NW15G26   29.93R WCI  13
BEAVER ISLAND  LGT SNOW  19  15  82 N16G29    30.09R WCI   5
BELLAIRE       FLURRIES  24  17  74 N14G24    30.08R WCI  12
CADILLAC       FLURRIES  22  16  77 NW18G25   30.02R WCI   8
CHARLEVOIX     LGT SNOW  22  16  80 NW25G35   30.11R WCI   5
FRANKFORT      CLOUDY    23  17  75 N15G25    30.15R WCI  10
GAYLORD        LGT SNOW  19  16  88 NW13G30   29.97R FOG     WCI   6
GRAYLING       LGT SNOW  22  18  83 NW14      30.00R WCI   9
HARBOR SPRINGS LGT SNOW  21  15  78 W10G25    30.04R WCI  10
HOUGHTON LAKE  LGT SNOW  23  16  74 NW22G32   29.99R WCI   8
MANISTEE       CLOUDY    27  18  69 N15G31    30.13R WCI  15
OSCODA         CLOUDY    30  23  77 NW16G25   29.91R WCI  18
PELLSTON       LGT SNOW  20  15  81 NW24G32   30.02R WCI   3
ROGERS CITY    FLURRIES  25  22  88 W12G26    29.95R WCI  14
TRAVERSE CITY  LGT SNOW  24  16  71 NW22G30   30.09R BLWGSNOWWCI   9
$$
MIZ007>008-015-300200-
EASTERN UPPER MICHIGAN

CITY           SKY/WX    TMP DP  RH WIND       PRES   REMARKS
KINROSS        CLOUDY    18  16  93 NW23G35   29.96R VSB 1   WCI   0
MACKINAC ISLAN LGT SNOW  22  17  82 NW17G29   30.00R WCI   8
NEWBERRY       LGT SNOW  16  13  88 NW17G26   30.07R WCI   0
S. S. MARIE    LGT SNOW  19  13  77 NW15G22   29.99R WCI   5
MUNISING         N/A     21  15  78 N25G33    30.17R WCI   4
$$
MIZ004>006-011>014-085-300200-
CENTRAL UPPER MICHIGAN

CITY           SKY/WX    TMP DP  RH WIND       PRES   REMARKS
MANISTIQUE     LGT SNOW  20  16  85 NW17G28   30.11R WCI   5
ESCANABA       MOCLDY    19   9  63 NW22G30   30.18R WCI   3
MENOMINEE      MOCLDY    21   7  53 N15G28    30.21R WCI   8
SAWYER-GWINN   LGT SNOW  16  10  79 N17G31    30.16R WCI   0
$$
MIZ001>003-009>011-084-300200-
WESTERN UPPER MICHIGAN

CITY           SKY/WX    TMP DP  RH WIND       PRES   REMARKS
IRON MOUNTAIN  MOCLDY    19  10  68 N14       30.19R WCI   6
HOUGHTON       LGT SNOW  15   7  70 N20G26    30.26R WCI  -2
COPPER HARBOR    N/A     18  12  77 NE28G44   30.27R WCI  -1
IRONWOOD       CLOUDY    18  10  73 N16G22    30.29R WCI   3
$$

ABBREVIATIONS USED IN REMARKS
   TC - TEMPERATURE IN CELSIUS
  WCI - WIND CHILL INDEX
   HX - HEAT INDEX
  VSB - VISIBILITY



USA.gov is the U.S. government's official web portal to all federal, state and local government web resources and services.